Weather Roundup
Issued by NWS

Home | Current Version | Previous Version | Graphics & Text | Print | Product List | Glossary Off
Versions: 1 2 3 4 5 6 7 8 9 10 11 12 13 14 15 16 17 18 19 20 21 22 23 24 25 26 27 28 29 30 31 32 33 34 35 36 37 38 39 40 41 42 43 44 45 46 47 48 49 50

000
NZUS93 KARX 190010
HRRWXR

CURRENT HOURLY OBSERVATIONS ACROSS
MUCH OF THE UPPER MISSISSIPPI VALLEY
NATIONAL WEATHER SERVICE LA CROSSE WI
600 PM CST THU DEC 18 2014


...SOUTHEAST MINNESOTA...


CITY           SKY/WX    TMP DP  RH WIND       PRES   REMARKS
ROCHESTER      CLOUDY    21  15  78 SW3       30.24S
ROCHESTER/MAYO CLOUDY    22  15  74 CALM      30.25R
WINONA         CLOUDY    27  21  80 E3        30.28S
AUSTIN         CLOUDY    19  16  86 CALM      30.24S
ALBERT LEA     CLOUDY    21  18  86 E3        30.23S
DODGE CENTER   CLOUDY    19  16  86 CALM      30.24R
PRESTON        CLOUDY    21  16  81 CALM      30.24S
OWATONNA       PTCLDY    21  16  79 CALM      30.24S
FARIBAULT      CLOUDY    19  16  86 SE3       30.25S
$$

...ELSEWHERE IN MINNESOTA...


CITY           SKY/WX    TMP DP  RH WIND       PRES   REMARKS
MINNEAPOLIS    CLOUDY    21  15  78 VRB3      30.27S
INTNL FALLS    CLOUDY    20  16  84 E6        30.22F WCI  12
DULUTH         CLOUDY    24  17  74 S6        30.21F WCI  17
RED WING       CLOUDY    23  18  80 CALM      30.27S
REDWOOD FALLS  CLOUDY    22  16  78 SE8       30.23S WCI  12
MANKATO        CLOUDY    21  14  73 E5        30.25S WCI  15
WORTHINGTON    CLOUDY    25  21  86 S5        30.19S WCI  19
FAIRMONT       CLOUDY    23  18  80 SE3       30.23R
$$

...SOUTHWEST WISCONSIN...


CITY           SKY/WX    TMP DP  RH WIND       PRES   REMARKS
LA CROSSE      CLOUDY    26  18  71 CALM      30.28S
PRAIRIE DU CHI CLOUDY    27  17  65 CALM      30.27R
BOSCOBEL       CLOUDY    27  18  69 E3        30.27S
LONE ROCK      CLOUDY    29  18  63 CALM      30.27S
PLATTEVILLE    CLOUDY    26  19  77 CALM      30.25S
FORT MC COY    CLOUDY    25  19  80 CALM      30.27S
CAMP DOUGLAS   CLOUDY    25  24  98 CALM      30.26S
VIROQUA        CLOUDY    23  20  86 NE3       30.23R
WIS DELLS      CLOUDY    25  20  80 CALM      30.25S
$$

...ELSEWHERE IN WISCONSIN...


CITY           SKY/WX    TMP DP  RH WIND       PRES   REMARKS
MILWAUKEE      FLURRIES  29  23  78 N7        30.24R WCI  22
MADISON        FLURRIES  27  21  78 N3        30.25R
GREEN BAY      CLEAR     22  19  89 CALM      30.25S
EAU CLAIRE     CLOUDY    24  18  77 CALM      30.26S
BLACK RVR FLS  CLOUDY    26  20  79 CALM      30.26S
MEDFORD        CLOUDY    22  18  84 CALM      30.22S
WAUSAU         CLEAR     22  17  81 W5        30.22R WCI  16
WIS RAPIDS     CLOUDY    25  19  78 CALM      30.26R
MARSHFIELD     CLOUDY    25  19  78 CALM      30.23R
RICE LAKE      CLOUDY    23  20  87 CALM      30.27S
$$

...NORTHEAST IOWA...


CITY           SKY/WX    TMP DP  RH WIND       PRES   REMARKS
DECORAH        CLOUDY    23  18  80 CALM      30.24R
MASON CITY     CLOUDY    23  17  78 CALM      30.25S
CHARLES CITY   CLOUDY    21  18  86 N3        30.26R
OELWEIN        MOCLDY    23  18  80 NW3       30.26R
$$

...ELSEWHERE IN IOWA...


CITY           SKY/WX    TMP DP  RH WIND       PRES   REMARKS
DES MOINES     CLOUDY    29  21  72 SE6       30.25S WCI  23
IOWA CITY      CLOUDY    27  18  69 CALM      30.28S
FORT DODGE     CLOUDY    27  18  69 E5        30.24S WCI  21
$$

...NORTHERN ILLINOIS...


CITY           SKY/WX    TMP DP  RH WIND       PRES   REMARKS
CHICAGO-OHARE  CLOUDY    28  19  69 N7        30.24R WCI  21
CHICAGO-MIDWAY CLOUDY    29  19  66 SW5       30.25R WCI  24
MOLINE         CLOUDY    26  17  68 N5        30.28R WCI  20
ROCKFORD       CLOUDY    26  17  68 NW3       30.27S
PEORIA         MOCLDY    27  18  69 CALM      30.27R
$$

NOTE: "FAIR" INDICATES FEW OR NO CLOUDS BELOW 12,000 FEET WITH NO
SIGNIFICANT WEATHER AND/OR OBSTRUCTIONS TO VISIBILITY. WIND
SPEEDS ARE IN MILES-PER-HOUR.



USA.gov is the U.S. government's official web portal to all federal, state and local government web resources and services.